Jupiter, Florida Weather Center

Moon Phase Calendar



Online Cameras

 


      

Current Conditions in Jupiter
4/13/2021 1:48:18 PM

84°F
Feels Like 81
Clear
Humidity
25%
Pressure
30.06"
Wind
10.4 mph (NE)
Dew Point
44°F
UV Index
10/10 (Very High)
Visibility
6 mi

Hourly Forecast

Date & Time Tue, Apr 13
1:00 PM
Tue, Apr 13
2:00 PM
Tue, Apr 13
3:00 PM
Tue, Apr 13
4:00 PM
Tue, Apr 13
5:00 PM
Tue, Apr 13
6:00 PM
Tue, Apr 13
7:00 PM
Tue, Apr 13
8:00 PM
Tue, Apr 13
9:00 PM
Tue, Apr 13
10:00 PM
Tue, Apr 13
11:00 PM
Wed, Apr 14
12:00 AM
Wed, Apr 14
1:00 AM
Wed, Apr 14
2:00 AM
Wed, Apr 14
3:00 AM
Wed, Apr 14
4:00 AM
Wed, Apr 14
5:00 AM
Wed, Apr 14
6:00 AM
Wed, Apr 14
7:00 AM
Wed, Apr 14
8:00 AM
Wed, Apr 14
9:00 AM
Wed, Apr 14
10:00 AM
Wed, Apr 14
11:00 AM
Wed, Apr 14
12:00 PM
Wed, Apr 14
1:00 PM
Wed, Apr 14
2:00 PM
Wed, Apr 14
3:00 PM
Wed, Apr 14
4:00 PM
Wed, Apr 14
5:00 PM
Wed, Apr 14
6:00 PM
Wed, Apr 14
7:00 PM
Wed, Apr 14
8:00 PM
Wed, Apr 14
9:00 PM
Wed, Apr 14
10:00 PM
Wed, Apr 14
11:00 PM
Thu, Apr 15
12:00 AM
Thu, Apr 15
1:00 AM
Thu, Apr 15
2:00 AM
Thu, Apr 15
3:00 AM
Thu, Apr 15
4:00 AM
Thu, Apr 15
5:00 AM
Thu, Apr 15
6:00 AM
Thu, Apr 15
7:00 AM
Thu, Apr 15
8:00 AM
Thu, Apr 15
9:00 AM
Thu, Apr 15
10:00 AM
Thu, Apr 15
11:00 AM
Thu, Apr 15
12:00 PM
Condition
Clear

Clear

Clear

Clear

Clear

Clear

Clear

Clear

Clear

Clear

Clear

Clear

Clear

Clear

Clear

Clear

Clear

Clear

Clear

Clear

Clouds

Clouds

Clouds

Clouds

Clouds

Clouds

Clear

Clear

Clear

Clear

Clear

Clear

Clear

Clear

Clear

Clear

Clear

Clouds

Clouds

Clouds

Clouds

Clouds

Clouds

Clouds

Clouds

Clouds

Clouds

Clouds
Temperature 83°F84°F83°F82°F81°F79°F76°F75°F74°F75°F75°F74°F74°F74°F73°F73°F72°F72°F72°F73°F74°F76°F76°F77°F77°F78°F77°F77°F77°F76°F75°F74°F74°F73°F73°F73°F73°F72°F72°F72°F71°F72°F72°F73°F74°F75°F78°F79°F
Feels Like 81°F81°F81°F81°F80°F79°F76°F75°F75°F75°F75°F75°F75°F74°F74°F73°F73°F72°F72°F73°F75°F76°F76°F77°F78°F78°F78°F77°F77°F76°F75°F74°F74°F73°F73°F73°F73°F72°F72°F72°F72°F72°F72°F73°F75°F75°F78°F79°F
Cloudiness 1%1%1%1%0%0%0%0%0%0%0%0%0%0%0%0%0%0%1%1%46%28%22%22%19%17%8%4%3%3%2%2%1%1%1%9%10%17%88%87%88%89%91%93%90%93%86%74%
Visibility 6 mi6 mi6 mi6 mi6 mi6 mi6 mi6 mi6 mi6 mi6 mi6 mi6 mi6 mi6 mi6 mi6 mi6 mi6 mi6 mi6 mi6 mi6 mi6 mi6 mi6 mi6 mi6 mi6 mi6 mi6 mi6 mi6 mi6 mi6 mi6 mi6 mi6 mi6 mi6 mi6 mi6 mi6 mi6 mi6 mi6 mi6 mi6 mi
Precipitation 0%0%0%0%0%0%0%0%0%0%0%0%0%0%0%0%0%0%0%0%0%0%0%0%0%0%0%0%0%0%0%0%0%0%0%0%0%0%0%0%0%0%0%0%0%0%0%0%
Humidity 30%25%29%34%40%48%59%65%69%71%72%73%73%72%73%73%73%72%71%70%65%62%60%58%57%56%56%56%57%57%60%61%63%67%68%68%70%70%69%69%69%68%69%70%67%67%58%54%
Dew Point 48°F44°F47°F51°F54°F58°F61°F62°F64°F65°F65°F65°F65°F64°F64°F64°F63°F63°F62°F63°F62°F62°F61°F61°F61°F60°F60°F60°F60°F60°F60°F60°F61°F62°F62°F62°F62°F62°F62°F61°F61°F61°F62°F63°F63°F63°F61°F61°F
Pressure 30.06"30.06"30.06"30.03"30.03"30.03"30.03"30.06"30.06"30.09"30.09"30.09"30.06"30.06"30.06"30.06"30.06"30.06"30.09"30.12"30.12"30.12"30.15"30.12"30.12"30.09"30.09"30.06"30.06"30.06"30.06"30.06"30.06"30.06"30.06"30.06"30.06"30.03"30"30"30"30"30"30"30.03"30"30"30"
Wind Speed 8 mph9.1 mph9.1 mph8.4 mph9 mph9.6 mph9.4 mph9.1 mph8.7 mph8.9 mph10.3 mph11 mph11.1 mph11.6 mph11.5 mph10.6 mph9.6 mph10 mph9.6 mph9.7 mph10.1 mph10 mph10.5 mph11.1 mph11.4 mph11.8 mph11.9 mph11.6 mph10.6 mph11.1 mph11.3 mph10.5 mph9.9 mph11.1 mph11.7 mph11 mph9.7 mph8.3 mph7.4 mph6.4 mph6.2 mph6.6 mph7.7 mph8.1 mph9.1 mph10 mph9.6 mph10.1 mph
Wind
Direction
23°
NNE
26°
NNE
27°
NNE
29°
NNE
27°
NNE
24°
NNE
26°
NNE
29°
NNE
37°
NE
47°
NE
55°
NE
64°
ENE
73°
ENE
78°
ENE
82°
E
88°
E
86°
E
83°
E
82°
E
83°
E
92°
E
93°
E
91°
E
96°
E
105°
ESE
102°
ESE
101°
E
101°
E
101°
E
109°
ESE
114°
ESE
122°
ESE
128°
SE
129°
SE
137°
SE
156°
SSE
177°
S
180°
S
188°
S
193°
SSW
182°
S
177°
S
177°
S
185°
S
184°
S
175°
S
173°
S
159°
SSE

Daily Forecast

Date High Low Precip. Humidity
Today
Apr 13

Clear
84 °F
70 °F
0%
30%
Wednesday
Apr 14

Clouds
78 °F
72 °F
0%
57%
Thursday
Apr 15

Clouds
82 °F
71 °F
0%
53%
Friday
Apr 16

Clouds
82 °F
71 °F
0%
49%
Saturday
Apr 17

Clouds
88 °F
74 °F
0%
55%
Sunday
Apr 18

Clear
85 °F
73 °F
16%
56%
Monday
Apr 19

Rain
84 °F
75 °F
83%
62%
Tuesday
Apr 20

Rain
87 °F
76 °F
97%
54%
Wednesday
Apr 21

Rain
75 °F
71 °F
100%
88%
Thursday
Apr 22

Clear
75 °F
72 °F
28%
55%
Friday
Apr 23

Clouds
74 °F
72 °F
0%
57%
Saturday
Apr 24

Rain
74 °F
71 °F
33%
60%
Sunday
Apr 25

Rain
77 °F
73 °F
20%
62%
Monday
Apr 26

Rain
80 °F
74 °F
35%
66%
Tuesday
Apr 27

Rain
79 °F
75 °F
20%
61%
Wednesday
Apr 28

Clouds
79 °F
74 °F
0%
61%

Temperature 8-14 Day Outlook



Precipitation 8-14 Day Outlook




Quick Links
Jupiter, Florida News
Jupiter, Florida Photos
Jupiter, Florida Videos




About Us
Contact Us
Site Map
Search Site
Advertise With Us
   
Jupiter.CoastalTown.com
THE JUPITER, FLORIDA WEBSITE

Copyright 2021, Coastal Town
Privacy    |    Legal